RH
67 84 97 82 79 74 75 83 89 68 55 62 63 57 45 38 40 40 36 34 33 35 26 28 31 34 35 40 33 32 34 51 49 41 41 70 80 81 87 99 99 99 78 56
79 92 70 69 72 77 83 91 86 63 46 50 53 56 47 45 46 46 47 46 43 38 35 28 30 29 35 37 36 32 44 52 47 39 40 47 64 77 87 76 96 100 77 70
85 62 59 68 78 86 82 87 80 69 54 63 70 80 72 56 53 49 48 48 50 45 40 34 32 38 40 37 36 43 52 45 48 43 47 45 60 62 88 94 97 98 86 77
77 62 67 73 81 74 90 61 65 70 96 97 70 91 61 54 77 65 70 62 53 52 47 36 36 47 39 36 34 48 46 43 56 49 48 50 48 54 96 85 100 95 90 88
72 69 64 72 72 66 81 69 83 82 98 98 86 97 80 86 86 83 80 81 80 52 42 43 48 47 45 36 36 43 42 52 65 59 59 56 72 52 98 99 100 96 90 93
75 58 63 71 62 63 68 83 89 93 98 98 80 91 84 92 96 92 89 75 79 79 56 47 50 49 49 36 33 48 58 60 64 72 68 68 56 77 100 100 99 98 95 87
79 81 72 73 91 77 95 99 98 91 98 91 91 98 85 95 95 95 95 83 79 88 64 51 51 52 52 54 52 59 62 64 65 77 83 74 63 100 98 91 92 98 91 87
97 83 83 85 96 98 98 99 97 100 97 93 95 94 90 91 94 97 94 88 85 94 85 69 60 57 57 54 57 62 63 71 85 95 90 83 85 100 99 97 90 89 82 82
97 90 61 80 79 93 96 100 94 99 96 97 93 82 84 73 88 92 96 95 98 96 88 82 75 65 60 55 61 63 71 96 96 91 82 91 96 100 98 99 88 83 79 80
90 96 70 78 78 87 98 91 97 99 97 94 88 96 97 96 97 95 95 96 96 98 95 84 71 59 68 66 69 84 89 96 89 93 76 61 68 87 100 91 87 80 86 81
87 98 77 81 93 100 98 99 98 98 98 97 96 96 99 100 99 98 95 97 98 98 97 88 74 70 68 77 95 97 91 84 88 91 76 73 58 83 89 90 93 85 85 86
83 93 99 95 69 66 76 98 87 98 92 93 98 98 93 96 97 100 97 98 100 100 97 82 78 79 82 98 95 88 86 88 90 97 91 92 100 97 84 83 94 90 81 82
71 91 95 74 64 71 90 85 73 76 84 92 98 96 86 94 95 98 98 98 100 100 100 99 88 90 100 99 98 97 98 99 100 98 100 100 92 100 100 92 94 93 82 74
73 92 97 97 98 88 88 87 78 86 96 94 98 97 96 95 96 96 98 99 99 100 100 100 100 100 100 100 100 100 100 100 100 100 98 96 89 94 96 97 100 92 91 92
68 95 86 99 82 82 86 88 80 89 92 95 95 94 98 96 97 97 100 99 98 100 100 100 100 100 100 99 100 100 99 100 100 98 100 95 99 100 100 98 100 99 99 99
68 69 68 76 76 79 91 85 72 74 75 78 79 92 79 84 90 95 99 98 99 100 100 100 100 100 100 100 100 99 100 100 100 100 100 100 89 88 92 94 100 99 95 92
76 75 82 74 61 57 81 93 82 76 74 76 92 85 81 88 90 96 99 100 100 100 100 100 100 100 100 100 99 98 100 100 100 100 100 100 100 98 100 100 100 100 100 100
76 74 79 82 62 82 63 67 67 76 77 74 72 78 83 89 90 97 100 100 100 100 95 95 96 92 87 89 98 99 100 100 100 99 99 100 100 100 100 99 100 100 100 100
70 78 72 77 92 76 69 66 64 74 78 76 76 78 76 77 71 88 96 99 100 100 100 95 86 84 79 77 80 77 78 79 89 98 99 99 99 98 98 97 97 94 96 98
67 73 73 73 81 82 62 59 57 58 78 74 73 83 80 71 91 95 93 97 98 98 94 89 85 82 78 75 70 63 67 70 76 81 82 82 83 93 99 99 99 97 95 96
64 67 69 76 82 72 57 57 54 77 69 72 72 80 77 93 91 91 87 86 90 92 88 82 78 77 82 78 70 69 72 72 75 73 72 71 73 76 79 82 81 80 80 86
61 65 70 73 71 61 54 60 66 63 72 68 72 78 81 83 82 79 78 77 78 85 89 90 87 86 86 84 78 76 76 85 84 82 77 75 73 72 72 70 72 75 80 82
64 61 60 61 61 60 65 61 62 63 67 73 71 74 72 72 73 74 68 66 64 64 64 62 62 63 68 67 68 67 78 83 73 67 67 75 79 82 84 82 80 79 80 79
58 60 69 60 60 74 69 71 64 63 59 62 64 70 73 70 72 74 74 70 71 69 66 69 71 69 67 70 69 67 67 64 66 69 69 68 70 73 76 86 91 94 94 93
60 62 69 71 69 73 72 70 69 69 65 64 67 67 69 71 70 73 70 71 71 72 73 75 76 76 78 82 80 73 67 66 62 59 61 67 72 75 76 83 89 97 99 98
65 71 68 60 59 61 60 64 72 71 66 63 67 72 70 68 68 66 67 66 64 66 68 72 77 81 79 76 76 76 73 70 67 63 62 64 70 74 80 83 80 81 91 98
Wind_Speed
3 2 7 9 9 6 4 5 11 17 13 12 20 24 26 28 27 29 34 36 36 38 43 38 41 39 38 34 37 39 37 35 28 33 35 30 33 28 35 39 49 52 46 46
3 8 11 9 8 8 8 11 18 15 12 6 15 28 24 24 24 32 35 37 39 40 39 40 38 42 40 37 37 42 39 35 33 32 37 38 28 36 38 45 48 50 49 47
5 5 3 5 7 7 10 8 16 15 17 9 12 15 8 6 13 25 34 42 39 38 36 39 38 38 37 37 36 37 37 36 34 34 34 31 35 28 43 47 54 51 51 47
5 8 8 9 9 7 8 10 17 10 6 3 5 8 8 6 8 4 13 19 30 33 36 38 34 30 34 36 37 35 36 35 37 35 34 36 41 43 46 57 45 55 53 48
5 4 3 4 6 6 9 5 9 13 11 12 3 5 7 6 8 17 20 22 21 29 33 29 29 33 29 34 36 37 35 35 38 40 34 36 40 40 47 59 59 55 53 50
9 6 4 6 5 10 7 10 11 10 4 3 5 6 6 6 17 24 19 23 25 24 28 24 23 26 25 30 34 35 31 34 39 39 33 34 36 43 44 52 64 54 53 51
5 3 3 4 5 1 1 3 3 4 4 5 2 4 7 10 18 20 19 23 23 19 20 23 22 24 26 28 28 33 31 35 37 42 36 30 33 56 51 53 57 60 58 53
1 5 4 4 5 3 2 3 3 4 2 4 3 7 4 9 21 27 32 22 18 15 14 20 24 24 25 27 29 32 31 30 35 34 21 35 31 49 54 53 54 56 53 53
2 4 1 5 5 2 1 3 2 3 3 2 3 6 3 14 21 22 27 29 16 15 15 17 20 23 27 28 29 31 33 35 32 41 29 33 21 31 39 45 44 46 49 52
1 4 5 4 2 8 5 4 1 2 4 4 4 4 9 22 22 20 21 25 27 19 18 20 22 24 22 24 25 26 28 35 35 33 30 33 30 16 35 36 43 46 50 51
3 1 4 2 2 3 2 2 2 2 1 2 3 3 8 16 17 17 20 29 28 18 19 19 20 19 20 20 22 28 26 23 28 30 27 31 21 23 30 36 40 45 49 50
4 1 3 4 4 3 2 4 4 2 5 2 3 3 14 17 17 16 22 33 29 16 5 13 9 9 13 26 27 28 28 19 17 20 30 28 30 28 28 43 35 41 45 47
1 3 3 6 4 5 6 6 1 3 1 9 3 5 13 16 18 28 27 31 29 33 24 10 11 12 24 32 28 23 21 22 20 19 22 20 9 31 34 39 35 35 40 42
1 4 3 4 4 2 6 12 11 2 3 2 6 7 14 19 20 23 36 38 38 37 36 29 28 33 31 26 24 21 21 20 21 25 29 24 18 18 22 21 28 30 38 36
2 2 3 3 4 8 7 6 8 8 4 4 7 9 12 16 17 25 30 36 43 40 36 40 40 39 41 38 26 26 34 25 29 28 21 19 22 20 16 11 8 11 16 25
4 1 2 5 3 11 7 9 9 7 6 3 5 4 9 16 22 27 30 31 33 36 40 39 47 44 40 36 32 32 27 25 24 19 19 18 20 18 9 4 7 7 14 17
3 2 2 3 3 1 5 6 6 3 6 4 5 3 7 12 17 23 26 31 33 37 39 40 39 41 38 35 31 30 28 26 26 24 21 17 14 11 11 9 7 6 6 7
3 2 1 3 3 3 4 2 1 5 5 6 3 3 1 5 16 27 31 31 31 34 35 35 35 35 33 31 30 27 27 25 25 23 21 18 14 13 12 9 7 5 4 6
1 2 1 2 1 3 2 1 1 3 3 4 4 6 9 5 7 24 28 24 24 26 27 28 28 28 28 28 27 27 28 27 26 25 22 17 15 13 12 10 8 6 4 4
2 3 3 1 2 0 2 1 4 2 3 2 3 5 8 5 7 3 16 21 23 23 23 25 26 27 28 28 24 23 25 24 25 22 21 18 17 15 12 10 8 4 2 2
2 2 2 0 1 5 3 2 2 3 5 2 6 8 9 4 5 5 10 17 20 21 22 21 21 25 27 22 22 24 24 26 23 19 17 15 13 11 11 11 8 5 2 1
2 2 2 1 1 5 7 5 6 5 9 9 6 7 12 10 7 8 10 13 15 18 18 18 19 22 22 20 17 19 21 19 16 15 14 14 12 11 10 7 7 7 6 5
2 5 3 6 4 3 7 5 6 13 14 12 11 8 7 6 5 7 8 9 11 13 15 15 17 19 18 17 17 17 18 14 15 14 11 10 10 9 8 6 5 5 5 6
3 5 3 1 3 6 8 9 12 11 9 9 8 10 8 6 4 4 4 5 5 7 10 10 10 9 12 13 12 15 15 14 11 9 11 12 9 8 8 7 7 7 8 9
5 7 5 4 3 3 12 15 17 16 12 11 9 7 6 5 5 4 2 1 3 4 5 5 8 9 10 10 9 9 9 9 11 12 10 8 8 8 8 8 8 9 10 12
11 7 5 6 16 11 14 25 22 20 19 16 15 12 10 8 7 6 5 4 3 2 3 3 3 4 7 9 9 10 10 11 13 15 17 14 12 12 12 11 10 11 11 11
Wind_Direction
181 133 223 221 210 223 230 248 267 274 278 276 266 268 273 271 257 253 251 252 251 249 259 261 262 265 261 253 236 234 239 239 238 242 240 234 229 222 218 213 220 209 203 202
21 247 235 223 219 227 245 269 273 278 273 245 276 276 271 268 259 252 251 249 245 247 249 254 256 260 257 252 237 231 229 231 238 238 240 241 234 227 221 216 220 204 200 203
185 244 359 211 253 250 250 249 270 268 304 272 275 276 259 250 241 252 251 249 247 242 240 248 251 255 248 244 233 227 221 232 228 228 237 244 232 235 221 215 215 200 202 202
236 257 243 264 255 224 269 236 250 268 298 269 60 295 281 300 318 345 337 305 252 242 242 250 254 252 241 239 229 222 226 234 222 224 231 237 234 230 230 212 205 203 205 201
259 293 295 270 246 169 238 225 238 277 263 293 265 242 277 355 339 328 314 307 309 259 247 244 242 246 251 233 223 224 233 230 227 228 227 236 227 233 227 210 206 202 199 201
241 245 273 230 255 233 265 291 279 268 265 260 227 178 287 343 326 319 311 300 294 299 240 243 243 237 242 229 225 227 228 230 226 226 226 225 230 222 195 184 191 194 194 198
327 233 263 217 279 309 184 280 329 355 8 237 223 215 261 332 323 309 295 294 289 297 260 247 246 242 237 228 225 224 233 226 223 220 216 220 218 201 197 192 195 192 197 199
4 332 196 159 228 270 273 208 166 258 311 276 4 330 292 325 316 324 335 271 277 280 271 251 244 239 230 223 223 225 228 223 221 205 190 205 223 187 195 193 199 198 202 206
282 284 332 222 224 212 256 231 216 265 226 271 293 286 288 329 336 342 345 344 333 310 271 254 227 218 215 218 221 229 222 208 203 200 209 203 211 183 197 197 200 203 204 200
223 290 227 270 231 207 233 325 316 238 335 335 292 311 323 333 333 334 336 327 318 301 263 238 215 214 218 223 228 215 197 197 183 186 187 206 230 260 196 208 210 210 204 202
185 199 287 270 357 315 327 317 260 264 319 313 310 334 333 324 322 323 323 324 325 306 249 238 225 217 228 224 213 198 182 177 190 203 198 203 214 201 194 199 208 211 209 208
186 207 300 264 271 257 182 3 336 31 356 319 303 340 341 328 325 329 334 335 343 17 237 223 215 201 194 176 157 160 168 174 180 191 205 212 206 203 214 201 203 212 213 213
320 347 348 343 356 27 36 14 11 307 62 12 350 326 330 332 343 350 351 1 17 35 82 111 131 173 130 139 149 159 165 159 149 156 165 146 114 193 190 191 201 206 214 213
222 37 35 95 64 348 53 28 28 50 51 338 14 320 341 346 349 357 357 8 30 37 56 71 101 115 120 125 140 163 155 153 153 131 119 116 116 111 148 176 191 205 216 213
103 85 48 91 98 68 68 43 31 55 19 59 342 2 350 352 352 1 6 12 24 31 41 53 70 84 86 88 101 112 131 145 145 130 117 115 124 123 122 111 131 178 182 200
2 110 100 178 125 84 58 12 34 28 11 47 340 23 3 1 9 4 13 14 25 36 40 47 68 77 83 83 83 89 104 126 131 123 116 112 132 137 122 158 165 179 197 210
25 57 53 278 300 14 37 348 22 49 20 339 11 346 340 24 18 7 8 20 24 31 43 50 57 67 74 76 77 78 81 91 94 94 97 102 118 129 122 121 123 142 181 201
14 78 148 271 16 47 241 224 140 79 35 2 343 270 60 58 38 22 26 26 37 45 52 57 63 65 66 69 75 81 79 77 82 87 91 92 89 85 80 84 93 110 167 200
68 120 58 102 38 292 311 242 323 51 329 338 324 334 278 300 354 22 27 36 44 51 57 59 64 68 72 72 75 76 74 72 74 75 76 76 80 83 85 74 56 51 27 349
98 66 115 95 87 281 240 201 99 296 329 0 42 23 42 25 50 3 18 41 52 56 60 65 65 66 67 67 69 73 73 73 72 69 68 67 66 68 77 85 84 48 11 329
351 351 108 64 178 285 226 157 86 93 242 113 65 63 57 67 91 64 54 55 55 58 59 62 65 65 63 64 65 67 66 63 59 60 62 62 61 59 55 47 47 59 37 8
181 139 222 126 83 293 165 119 164 174 141 145 128 105 100 101 84 62 57 59 65 69 68 67 71 71 69 65 69 74 69 64 60 54 55 55 51 47 47 38 18 360 354 342
251 185 196 181 223 261 197 238 207 166 155 162 154 149 132 104 82 71 64 62 61 62 63 57 52 58 64 62 57 60 67 62 47 35 34 40 34 32 27 23 18 6 348 337
243 182 201 59 233 223 199 181 176 185 185 172 161 158 166 155 145 134 119 96 85 66 55 56 65 65 61 57 52 50 43 37 33 24 19 21 11 0 344 333 336 336 334 331
214 151 180 253 239 216 223 201 193 188 192 184 186 191 188 193 189 193 194 148 84 72 59 43 37 31 31 31 28 31 25 15 9 8 353 352 344 328 321 320 319 319 316 311
191 185 174 217 195 185 209 195 192 191 189 189 189 189 202 216 234 238 239 250 269 286 311 327 330 328 339 341 340 346 343 345 342 344 344 344 337 325 318 312 310 305 289 281